Forecast Directory   
U.S. Alerts
El Dorado Weather Logo
U.S. Radar Loop Conditions Map

U.S. Color Satellite North America Color Infrared Animated Satellite Loop

Interactive Wx Map Live U.S. Google Map Radar Thumbnail Image

US Precipitation 1 day, 24 hour precipitation map

US Temperatures US Conditions Map

US Climate Data US Conditions Map


NOAA NWS Hourly Roundups by Site
Regional Weather Roundup for Sacramento, CA
Select Site:  

000
ASUS46 KSTO 272115
RWRCA

NORTHERN AND CENTRAL CA REGIONAL WEATHER ROUNDUP
NATIONAL WEATHER SERVICE SACRAMENTO CA
200 PM PDT TUE SEP 27 2022

NOTE: FAIR INDICATES FEW OR NO CLOUDS BELOW 12,000 FEET WITH NO
SIGNIFICANT WEATHER AND/OR OBSTRUCTIONS TO VISIBILITY.

CAZ001-003-272200-
NORTHWEST AREA

CITY           SKY/WX    TMP DP  RH WIND       PRES   REMARKS
CRESCENT CITY  CLOUDY    62  54  74 S10       30.04S
UKIAH          SUNNY     80  47  31 CALM      29.95F
$$

CAZ006-505>513-272200-
BAY AREA

CITY           SKY/WX    TMP DP  RH WIND       PRES   REMARKS
SANTA ROSA     SUNNY     70  53  54 CALM      29.99F
SAN RAFAEL     N/A       70  MM  MM MISG
NAPA           SUNNY     71  54  54 S9        29.97F
CONCORD        SUNNY     78  48  34 W14       29.95F
OAKLAND CITY   N/A       65  MM  MM MISG
OAKLAND        MOSUNNY   65  54  67 W9        30.00F
SAN FRAN CITY  N/A       63  MM  67 MISG
SAN FRAN ARPT  MOSUNNY   66  54  65 NW17G29   29.99F
LIVERMORE      SUNNY     79  52  38 VRB6      29.95F
HAYWARD        SUNNY     68  53  58 W8        29.99F
REDWOOD CITY   N/A       68  MM  63 MISG
MOFFETT ARPT   SUNNY     66  54  63 N10       29.99F
SAN JOSE ARPT  MOSUNNY   71  52  50 VRB5      29.98F
$$
CAZ034-037-514>518-272200-
CENTRAL COAST

CITY           SKY/WX    TMP DP  RH WIND       PRES   REMARKS
WATSONVILLE    SUNNY     70  57  63 W8        29.98S
SALINAS        SUNNY     74  57  55 W14       29.96F
MONTEREY       SUNNY     62  54  74 NW10      30.00S
SAN LUIS OBISP SUNNY     78  58  49 NW16      29.91F
SANTA MARIA    MOSUNNY   67  59  75 NW9       29.93F
HALF MOON BAY  FAIR      63  55  77 NW17      30.01F
$$
CAZ015-016-272200-
NORTHERN SACRAMENTO VALLEY

CITY           SKY/WX    TMP DP  RH WIND       PRES   REMARKS
REDDING        MOSUNNY   89  45  21 S7        29.91S
RED BLUFF      MOSUNNY   87  49  26 S9        29.92F
OROVILLE       SUNNY     84  53  34 S7        29.94F
$$
CAZ016>018-272200-
SOUTHERN SACRAMENTO VALLEY

CITY           SKY/WX    TMP DP  RH WIND       PRES   REMARKS
AUBURN         SUNNY     84  46  26 VRB5      29.99F
BEALE AFB      SUNNY     82  52  34 SW6       29.92F
LINCOLN        FAIR      82  45  26 SW6       29.93S
MARYSVILLE     SUNNY     83  52  34 SW8       29.93F
SAC INTL ARPT  MOSUNNY   84  48  28 S5        29.92F
MATHER AIRPORT SUNNY     81  46  30 VRB7      29.92F
DOWNTOWN SAC   N/A       83  MM  MM MISG
SAC EXEC ARPT  SUNNY     79  51  37 SW7       29.94F
VACAVILLE      SUNNY     83  48  29 VRB5      29.94F
TRAVIS AFB     SUNNY     79  48  33 SW15      29.93F
$$
CAZ019>021-272200-
SAN JOAQUIN VALLEY

CITY           SKY/WX    TMP DP  RH WIND       PRES   REMARKS
STOCKTON       SUNNY     86  49  27 NW9       29.93F
MODESTO        SUNNY     84  45  25 NW8       29.92F
MERCED         SUNNY     91  48  22 VRB5      29.91F
LEMOORE        MOSUNNY   93  53  25 N9        29.90F HX  90
FRESNO         MOSUNNY   93  53  25 NW9       29.91F HX  90
HANFORD        SUNNY     93  53  25 VRB7      29.91F HX  90
PORTERVILLE    SUNNY     93  59  31 NW6       29.91F HX  92
BAKERSFIELD    SUNNY     90  56  31 W5        29.90F
$$
CAZ011-012-071-272200-
NORTHERN MOUNTAINS

CITY           SKY/WX    TMP DP  RH WIND       PRES   REMARKS
YREKA          PTSUNNY   88  41  19 S10G20    29.96F
MOUNT SHASTA   PTSUNNY   77  46  33 CALM      30.06S
ALTURAS        SUNNY     84  38  19 VRB5      30.06F
$$
CAZ011-012-071-272200-
SIERRA NEVADA MTNS

CITY           SKY/WX    TMP DP  RH WIND       PRES   REMARKS
BLUE CANYON    SUNNY     75  44  33 S15G24    30.21F
TRUCKEE        SUNNY     79  37  22 SW14G22   30.21
TAHOE VLY ARPT SUNNY     76  35  22 S17G28    30.22F
MAMMOTH LAKES  FAIR      75  27  16 S14G25    30.31F
$$


 

View Past Reports for Sacramento, CA.

Products Courtesy of NOAA-NWS
NWS Information Parsing Script by Ken True at Saratoga Weather - Script by SE Lincoln Weather.



Contact Us Contact Us Thumbnail | Mobile Mobile Phone Thumbnail
Never base any life decisions on weather information from this site or anywhere over the Internet.
Site is dedicated to our Lord & Savior Jesus Christ | Random Quotes of Jesus

Copyright © 2022 El Dorado Weather, Inc. | Site Designed By:  Webmaster